Tracking 28793 objects as of 20-Apr-2024
HD Live streaming from Space Station
objects crossing your sky now

STARLINK-2041

Track STARLINK-2041 now!
10-day predictions
STARLINK-2041 is classified as:


NORAD ID: 47657
Int'l Code: 2021-012AP
Perigee: 553.4 km
Apogee: 555.5 km
Inclination: 53.1 °
Period: 95.6 minutes
Semi major axis: 6925 km
RCS: Unknown
Launch date: February 16, 2021
Source: United States (US)
Launch site: AIR FORCE EASTERN TEST RANGE (AFETR)
Your satellite tracking list
Your tracking list is empty




NASA's NSSDC Master Catalog

Two Line Element Set (TLE):
1 47657U 21012AP  24111.61887879 -.00010848  00000-0 -71120-3 0  9995
2 47657  53.0542 280.4839 0001533  80.0909 280.0253 15.06362723176270
Source of the keplerian elements: AFSPC